Yakima, WA
on Saturday, December 8, 2012

Saturday
Previous Day Next Day
Daily Summary
 ActualAverageRecord
Temperature
Mean Temperature °F 29°F  
Max Temperature 45°F 37°F 53°F (1991)
Min Temperature 29°F 22°F -7°F (1972)
Degree Days
Heating Degree Days 28 36  
Month to date heating degree days 179 276  
Since 1 July heating degree days 1417 1809  
Cooling Degree Days 0 0  
Month to date cooling degree days 0 0  
Year to date cooling degree days 667 472  
Moisture
Dew Point 27°F   
Average Humidity 66    
Maximum Humidity 78    
Minimum Humidity 53    
Precipitation
Precipitation 0.00 in 0.05 in 0.41 in (1993)
Month to date precipitation 0.74 0.39  
Year to date precipitation 7.93 7.11  
Snow
Snow 0.00 in 0.30 in 4.80 in (1948)
Month to date snowfall 0.0 2.3  
Year to date snowfall 22.2 14.5  
Since 1 July snowfall 0.7 5.9  
Snow Depth 0.00 in   
Wind
Wind Speed 2 mph   
Max Wind Speed 14 mph   
Max Gust Speed 18 mph   
Visibility 10 miles   
Events     

Key: T is trace of precipitation, MM is missing value
Source: NWS Daily Summary
Time(PST)TemperatureDew PointHumidity Pressure Visibility Wind DirectionWind SpeedGust SpeedPrecipitationEvents Conditions
12:53 AM 35.1°F 24.1°F 64% 30.10 in 10.0 miles Calm Calm - N/A   Clear
1:53 AM 33.1°F 24.1°F 70% 30.11 in 10.0 miles Calm Calm - N/A   Clear
2:53 AM 32.0°F 24.8°F 75% 30.09 in 10.0 miles Variable 3.5 mph - N/A   Clear
3:53 AM 30.2°F 24.8°F 80% 30.09 in 10.0 miles Calm Calm - N/A   Clear
4:53 AM 30.0°F 25.0°F 82% 30.13 in 10.0 miles Calm Calm - N/A   Clear
5:53 AM 30.0°F 25.0°F 82% 30.13 in 10.0 miles Calm Calm - N/A   Clear
6:53 AM 30.0°F 25.0°F 82% 30.15 in 10.0 miles Calm Calm - N/A   Clear
7:53 AM 30.0°F 25.0°F 82% 30.16 in 10.0 miles West 6.9 mph - N/A   Clear
8:53 AM 32.0°F 27.0°F 82% 30.17 in 10.0 miles West 3.5 mph - N/A   Clear
9:53 AM 35.1°F 28.0°F 76% 30.19 in 10.0 miles Calm Calm - N/A   Clear
10:53 AM 39.0°F 28.9°F 67% 30.19 in 10.0 miles Calm Calm - N/A   Scattered Clouds
11:53 AM 42.1°F 28.0°F 58% 30.19 in 10.0 miles Calm Calm - N/A   Clear
12:53 PM 42.1°F 28.0°F 58% 30.19 in 10.0 miles Calm Calm - N/A   Scattered Clouds
1:53 PM 45.0°F 28.0°F 52% 30.19 in 10.0 miles NE 6.9 mph - N/A   Mostly Cloudy
2:53 PM 43.0°F 28.0°F 56% 30.21 in 10.0 miles NNE 4.6 mph - N/A   Partly Cloudy
3:53 PM 39.9°F 28.9°F 65% 30.23 in 10.0 miles Calm Calm - N/A   Partly Cloudy
4:53 PM 37.4°F 28.4°F 70% 30.23 in 10.0 miles Calm Calm - N/A   Overcast
5:53 PM 37.9°F 30.0°F 73% 30.26 in 10.0 miles WSW 5.8 mph - N/A   Overcast
6:53 PM 37.0°F 30.0°F 76% 30.28 in 10.0 miles West 4.6 mph - N/A   Overcast
7:53 PM 37.0°F 30.0°F 76% 30.30 in 10.0 miles West 3.5 mph - N/A   Overcast
8:53 PM 36.0°F 28.9°F 76% 30.31 in 10.0 miles West 3.5 mph 18.4 mph N/A   Overcast
9:53 PM 35.1°F 28.9°F 78% 30.32 in 10.0 miles Calm Calm - N/A   Overcast
10:53 PM 35.1°F 28.9°F 78% 30.33 in 10.0 miles Calm Calm - N/A   Overcast
11:53 PM 34.0°F 28.9°F 82% 30.35 in 10.0 miles North - - N/A   Partly Cloudy
Moon Phase
Dec. 08 Dec. 13 Dec. 20 Dec. 28 Jan. 04
Sunrise:07:33 AM (PST) Moon Rise:01:48 AM (PST)12/8
Sunset:04:14 PM (PST) Moon Set:01:01 PM (PST)12/8

Copyright © 2014 The Weather Underground, Inc.